Time,TemperatureF,DewpointF,PressureIn,WindDirection,WindDirectionDegrees,WindSpeedMPH,WindSpeedGustMPH,Humidity,HourlyPrecipIn,Conditions,Clouds,dailyrainin,SoftwareType,DateUTC
2013-07-29 00:00:00,61.3,56.8,29.92,West,261,0.0,1.0,85,0.00,,,0.00,Wunderground v.1.15,2013-07-29 07:00:00,
2013-07-29 00:10:00,61.3,56.8,29.92,West,261,0.0,1.0,85,0.00,,,0.00,Wunderground v.1.15,2013-07-29 07:10:00,
2013-07-29 00:20:00,61.3,56.8,29.92,West,261,0.0,1.0,85,0.00,,,0.00,Wunderground v.1.15,2013-07-29 07:20:00,
2013-07-29 00:30:00,61.3,56.8,29.93,West,261,0.0,3.0,85,0.00,,,0.00,Wunderground v.1.15,2013-07-29 07:30:00,
2013-07-29 00:40:00,61.2,56.7,29.93,SW,229,2.0,2.0,85,0.00,,,0.00,Wunderground v.1.15,2013-07-29 07:40:00,
2013-07-29 00:50:00,60.9,56.4,29.93,SW,227,3.0,6.0,85,0.00,,,0.00,Wunderground v.1.15,2013-07-29 07:50:00,
2013-07-29 01:00:00,60.9,56.4,29.93,SW,230,2.0,6.0,85,0.00,,,0.00,Wunderground v.1.15,2013-07-29 08:00:00,
2013-07-29 01:10:00,60.7,56.2,29.93,SW,231,1.0,5.0,85,0.00,,,0.00,Wunderground v.1.15,2013-07-29 08:10:00,
2013-07-29 01:20:00,60.7,56.2,29.93,SW,230,2.0,4.0,85,0.00,,,0.00,Wunderground v.1.15,2013-07-29 08:20:00,
2013-07-29 01:30:00,60.7,56.5,29.93,WSW,241,3.0,3.0,86,0.00,,,0.00,Wunderground v.1.15,2013-07-29 08:30:00,
2013-07-29 01:40:00,60.7,56.5,29.93,WSW,241,1.0,5.0,86,0.00,,,0.00,Wunderground v.1.15,2013-07-29 08:40:00,
2013-07-29 01:50:00,60.5,56.3,29.93,WSW,241,1.0,4.0,86,0.00,,,0.00,Wunderground v.1.15,2013-07-29 08:50:00,
2013-07-29 02:00:00,60.5,56.3,29.93,WSW,252,2.0,4.0,86,0.00,,,0.00,Wunderground v.1.15,2013-07-29 09:00:00,
2013-07-29 02:10:00,60.5,56.3,29.93,West,261,2.0,2.0,86,0.00,,,0.00,Wunderground v.1.15,2013-07-29 09:10:00,
2013-07-29 02:20:00,60.4,56.5,29.93,West,264,2.0,2.0,87,0.00,,,0.00,Wunderground v.1.15,2013-07-29 09:20:00,
2013-07-29 02:30:00,60.4,56.5,29.94,West,263,1.0,1.0,87,0.00,,,0.00,Wunderground v.1.15,2013-07-29 09:30:00,
2013-07-29 02:40:00,60.2,56.6,29.94,West,264,1.0,3.0,88,0.00,,,0.00,Wunderground v.1.15,2013-07-29 09:40:00,
2013-07-29 02:50:00,60.2,56.6,29.93,West,264,2.0,2.0,88,0.00,,,0.00,Wunderground v.1.15,2013-07-29 09:50:00,
2013-07-29 03:00:00,60.2,56.9,29.93,West,264,0.0,5.0,89,0.00,,,0.00,Wunderground v.1.15,2013-07-29 10:00:00,
2013-07-29 03:10:00,60.1,56.8,29.93,West,264,1.0,3.0,89,0.00,,,0.00,Wunderground v.1.15,2013-07-29 10:10:00,
2013-07-29 03:20:00,60.1,56.8,29.93,West,265,1.0,1.0,89,0.00,,,0.00,Wunderground v.1.15,2013-07-29 10:20:00,
2013-07-29 03:40:00,59.8,56.9,29.93,West,265,0.0,3.0,90,0.00,,,0.00,Wunderground v.1.15,2013-07-29 10:40:00,
2013-07-29 03:50:00,59.9,57.0,29.93,West,264,0.0,4.0,90,0.00,,,0.00,Wunderground v.1.15,2013-07-29 10:50:00,
2013-07-29 04:00:00,59.9,57.0,29.93,West,265,1.0,1.0,90,0.00,,,0.00,Wunderground v.1.15,2013-07-29 11:00:00,
2013-07-29 04:10:00,60.1,57.5,29.93,West,264,0.0,4.0,91,0.00,,,0.00,Wunderground v.1.15,2013-07-29 11:10:00,
2013-07-29 04:20:00,59.9,57.3,29.93,West,264,0.0,1.0,91,0.00,,,0.00,Wunderground v.1.15,2013-07-29 11:20:00,
2013-07-29 04:30:00,60.1,57.5,29.94,West,264,0.0,2.0,91,0.00,,,0.00,Wunderground v.1.15,2013-07-29 11:30:00,
2013-07-29 04:40:00,59.9,57.3,29.94,West,264,1.0,1.0,91,0.00,,,0.00,Wunderground v.1.15,2013-07-29 11:40:00,
2013-07-29 04:50:00,60.1,57.5,29.94,West,265,0.0,3.0,91,0.00,,,0.00,Wunderground v.1.15,2013-07-29 11:50:00,
2013-07-29 05:00:00,60.1,57.5,29.94,West,264,0.0,2.0,91,0.00,,,0.00,Wunderground v.1.15,2013-07-29 12:00:00,
2013-07-29 05:10:00,60.1,57.5,29.94,West,265,0.0,1.0,91,0.00,,,0.00,Wunderground v.1.15,2013-07-29 12:10:00,
2013-07-29 05:20:00,60.1,57.5,29.94,West,264,0.0,3.0,91,0.00,,,0.00,Wunderground v.1.15,2013-07-29 12:20:00,
2013-07-29 05:30:00,60.1,57.8,29.95,West,264,0.0,3.0,92,0.00,,,0.00,Wunderground v.1.15,2013-07-29 12:30:00,
2013-07-29 05:40:00,60.1,57.8,29.95,West,265,0.0,1.0,92,0.00,,,0.00,Wunderground v.1.15,2013-07-29 12:40:00,
2013-07-29 05:50:00,60.1,57.8,29.95,West,265,0.0,0.0,92,0.00,,,0.00,Wunderground v.1.15,2013-07-29 12:50:00,
2013-07-29 06:00:00,60.1,57.8,29.95,West,264,0.0,0.0,92,0.00,,,0.00,Wunderground v.1.15,2013-07-29 13:00:00,
2013-07-29 06:10:00,60.2,57.9,29.95,West,265,0.0,0.0,92,0.00,,,0.00,Wunderground v.1.15,2013-07-29 13:10:00,
2013-07-29 06:20:00,60.4,58.1,29.95,West,264,0.0,0.0,92,0.00,,,0.00,Wunderground v.1.15,2013-07-29 13:20:00,
2013-07-29 06:30:00,60.2,57.9,29.96,West,264,0.0,0.0,92,0.00,,,0.00,Wunderground v.1.15,2013-07-29 13:30:00,
2013-07-29 06:40:00,60.2,57.9,29.96,West,264,0.0,0.0,92,0.00,,,0.00,Wunderground v.1.15,2013-07-29 13:40:00,
2013-07-29 06:51:00,60.4,58.1,29.96,West,264,0.0,0.0,92,0.00,,,0.00,Wunderground v.1.15,2013-07-29 13:51:00,
2013-07-29 07:00:00,60.5,58.2,29.96,West,264,1.0,1.0,92,0.00,,,0.00,Wunderground v.1.15,2013-07-29 14:00:00,
2013-07-29 07:10:00,60.5,58.2,29.96,West,264,0.0,3.0,92,0.00,,,0.00,Wunderground v.1.15,2013-07-29 14:10:00,
2013-07-29 07:21:00,60.5,58.2,29.97,West,264,0.0,1.0,92,0.00,,,0.00,Wunderground v.1.15,2013-07-29 14:21:00,
2013-07-29 07:30:00,60.7,58.4,29.97,West,264,1.0,3.0,92,0.00,,,0.00,Wunderground v.1.15,2013-07-29 14:30:00,
2013-07-29 07:40:00,60.9,58.6,29.97,West,264,1.0,3.0,92,0.00,,,0.00,Wunderground v.1.15,2013-07-29 14:40:00,
2013-07-29 07:50:00,60.7,58.4,29.97,West,264,1.0,1.0,92,0.00,,,0.00,Wunderground v.1.15,2013-07-29 14:50:00,
2013-07-29 08:00:00,60.9,58.3,29.98,West,264,1.0,3.0,91,0.00,,,0.00,Wunderground v.1.15,2013-07-29 15:00:00,
2013-07-29 08:10:00,60.9,58.3,29.98,West,265,2.0,5.0,91,0.00,,,0.00,Wunderground v.1.15,2013-07-29 15:10:00,
2013-07-29 08:20:00,61.2,58.6,29.98,West,279,3.0,5.0,91,0.00,,,0.00,Wunderground v.1.15,2013-07-29 15:20:00,
2013-07-29 08:30:00,61.3,58.7,29.98,West,278,2.0,6.0,91,0.00,,,0.00,Wunderground v.1.15,2013-07-29 15:30:00,
2013-07-29 08:40:00,61.5,58.5,29.98,West,279,2.0,5.0,90,0.00,,,0.00,Wunderground v.1.15,2013-07-29 15:40:00,
2013-07-29 08:50:00,61.8,58.8,29.98,West,279,2.0,2.0,90,0.00,,,0.00,Wunderground v.1.15,2013-07-29 15:50:00,
2013-07-29 09:00:00,62.0,58.7,29.99,SW,231,2.0,5.0,89,0.00,,,0.00,Wunderground v.1.15,2013-07-29 16:00:00,
2013-07-29 09:10:00,62.0,58.7,29.99,SW,229,3.0,3.0,89,0.00,,,0.00,Wunderground v.1.15,2013-07-29 16:10:00,
2013-07-29 09:20:00,62.6,59.3,29.99,SW,228,2.0,4.0,89,0.00,,,0.00,Wunderground v.1.15,2013-07-29 16:20:00,
2013-07-29 09:30:00,62.9,59.3,29.99,SW,229,3.0,4.0,88,0.00,,,0.00,Wunderground v.1.15,2013-07-29 16:30:00,
2013-07-29 09:40:00,63.4,59.1,29.99,WSW,254,3.0,5.0,86,0.00,,,0.00,Wunderground v.1.15,2013-07-29 16:40:00,
2013-07-29 09:50:00,63.7,59.1,29.99,WSW,254,2.0,6.0,85,0.00,,,0.00,Wunderground v.1.15,2013-07-29 16:50:00,
2013-07-29 10:00:00,64.2,58.9,29.99,SW,232,4.0,4.0,83,0.00,,,0.00,Wunderground v.1.15,2013-07-29 17:00:00,
2013-07-29 10:10:00,65.3,59.3,29.99,SW,219,4.0,7.0,81,0.00,,,0.00,Wunderground v.1.15,2013-07-29 17:10:00,
2013-07-29 10:20:00,65.8,58.7,29.99,SW,225,4.0,4.0,78,0.00,,,0.00,Wunderground v.1.15,2013-07-29 17:20:00,
2013-07-29 10:30:00,66.0,58.2,30.00,SW,226,3.0,3.0,76,0.00,,,0.00,Wunderground v.1.15,2013-07-29 17:30:00,
2013-07-29 10:40:00,66.3,58.5,30.00,South,189,3.0,6.0,76,0.00,,,0.00,Wunderground v.1.15,2013-07-29 17:40:00,
2013-07-29 10:50:00,66.8,58.2,30.00,West,273,3.0,6.0,74,0.00,,,0.00,Wunderground v.1.15,2013-07-29 17:50:00,
2013-07-29 11:00:00,67.4,58.4,30.00,SSW,209,6.0,9.0,73,0.00,,,0.00,Wunderground v.1.15,2013-07-29 18:00:00,
2013-07-29 11:10:00,67.8,58.4,30.00,SW,220,9.0,12.0,72,0.00,,,0.00,Wunderground v.1.15,2013-07-29 18:10:00,
2013-07-29 11:20:00,68.1,57.9,30.00,SW,235,7.0,17.0,70,0.00,,,0.00,Wunderground v.1.15,2013-07-29 18:20:00,
2013-07-29 11:30:00,68.1,57.9,30.01,SSW,211,7.0,13.0,70,0.00,,,0.00,Wunderground v.1.15,2013-07-29 18:30:00,
2013-07-29 11:40:00,68.1,57.1,30.01,SSW,207,6.0,13.0,68,0.00,,,0.00,Wunderground v.1.15,2013-07-29 18:40:00,
2013-07-29 11:50:00,68.8,57.8,30.01,WSW,257,7.0,7.0,68,0.00,,,0.00,Wunderground v.1.15,2013-07-29 18:50:00,
2013-07-29 12:00:00,69.6,57.3,30.01,SW,225,6.0,6.0,65,0.00,,,0.00,Wunderground v.1.15,2013-07-29 19:00:00,
2013-07-29 12:10:00,69.4,57.1,30.01,SW,236,6.0,12.0,65,0.00,,,0.00,Wunderground v.1.15,2013-07-29 19:10:00,
2013-07-29 12:20:00,69.4,56.7,30.01,WSW,246,7.0,7.0,64,0.00,,,0.00,Wunderground v.1.15,2013-07-29 19:20:00,
2013-07-29 12:30:00,69.4,57.1,30.02,SW,223,7.0,13.0,65,0.00,,,0.00,Wunderground v.1.15,2013-07-29 19:30:00,
2013-07-29 12:40:00,70.4,56.8,30.02,SSW,209,8.0,8.0,62,0.00,,,0.00,Wunderground v.1.15,2013-07-29 19:40:00,
2013-07-29 12:50:00,69.9,56.7,30.02,WSW,241,7.0,7.0,63,0.00,,,0.00,Wunderground v.1.15,2013-07-29 19:50:00,
2013-07-29 13:00:00,69.8,56.6,30.02,WSW,241,8.0,8.0,63,0.00,,,0.00,Wunderground v.1.15,2013-07-29 20:00:00,
2013-07-29 13:10:00,69.6,56.0,30.02,SW,226,7.0,16.0,62,0.00,,,0.00,Wunderground v.1.15,2013-07-29 20:10:00,
2013-07-29 13:30:00,69.9,56.3,30.01,SW,225,6.0,13.0,62,0.00,,,0.00,Wunderground v.1.15,2013-07-29 20:30:00,
2013-07-29 13:50:00,70.1,56.5,30.00,SSW,209,6.0,13.0,62,0.00,,,0.00,Wunderground v.1.15,2013-07-29 20:50:00,
2013-07-29 14:00:00,70.1,56.5,30.00,WSW,252,7.0,7.0,62,0.00,,,0.00,Wunderground v.1.15,2013-07-29 21:00:00,
2013-07-29 14:20:00,70.9,56.3,30.00,SW,227,8.0,8.0,60,0.00,,,0.00,Wunderground v.1.15,2013-07-29 21:20:00,
2013-07-29 14:30:00,70.3,55.8,30.00,WSW,251,8.0,8.0,60,0.00,,,0.00,Wunderground v.1.15,2013-07-29 21:30:00,
2013-07-29 14:40:00,70.1,55.6,30.00,SW,224,8.0,8.0,60,0.00,,,0.00,Wunderground v.1.15,2013-07-29 21:40:00,
2013-07-29 14:50:00,70.1,55.6,30.00,South,186,8.0,8.0,60,0.00,,,0.00,Wunderground v.1.15,2013-07-29 21:50:00,
2013-07-29 15:00:00,70.4,55.8,29.99,South,186,9.0,14.0,60,0.00,,,0.00,Wunderground v.1.15,2013-07-29 22:00:00,
2013-07-29 15:10:00,70.4,55.4,29.99,SSW,206,8.0,8.0,59,0.00,,,0.00,Wunderground v.1.15,2013-07-29 22:10:00,
2013-07-29 15:21:00,69.4,55.4,29.99,South,177,9.0,9.0,61,0.00,,,0.00,Wunderground v.1.15,2013-07-29 22:21:00,
2013-07-29 15:32:00,70.3,55.8,29.99,South,181,8.0,16.0,60,0.00,,,0.00,Wunderground v.1.15,2013-07-29 22:32:00,
2013-07-29 15:40:00,70.1,55.1,29.99,SSW,200,7.0,14.0,59,0.00,,,0.00,Wunderground v.1.15,2013-07-29 22:40:00,
2013-07-29 15:50:00,70.6,55.1,29.99,SW,233,7.0,7.0,58,0.00,,,0.00,Wunderground v.1.15,2013-07-29 22:50:00,
2013-07-29 16:00:00,70.9,55.9,29.99,WSW,244,6.0,11.0,59,0.00,,,0.00,Wunderground v.1.15,2013-07-29 23:00:00,
2013-07-29 16:10:00,70.3,55.3,29.99,SW,229,6.0,12.0,59,0.00,,,0.00,Wunderground v.1.15,2013-07-29 23:10:00,
2013-07-29 16:20:00,69.8,55.3,29.99,SW,225,8.0,8.0,60,0.00,,,0.00,Wunderground v.1.15,2013-07-29 23:20:00,
2013-07-29 16:40:00,69.8,55.3,29.99,WSW,248,8.0,15.0,60,0.00,,,0.00,Wunderground v.1.15,2013-07-29 23:40:00,
2013-07-29 16:50:00,69.9,55.4,29.99,WNW,290,5.0,13.0,60,0.00,,,0.00,Wunderground v.1.15,2013-07-29 23:50:00,
2013-07-29 17:00:00,69.9,55.4,29.99,West,275,6.0,10.0,60,0.00,,,0.00,Wunderground v.1.15,2013-07-30 00:00:00,
2013-07-29 17:10:00,69.8,55.3,29.99,WSW,244,5.0,12.0,60,0.00,,,0.00,Wunderground v.1.15,2013-07-30 00:10:00,
2013-07-29 17:20:00,69.4,54.9,29.99,SW,217,6.0,6.0,60,0.00,,,0.00,Wunderground v.1.15,2013-07-30 00:20:00,
2013-07-29 17:30:00,69.4,54.9,29.99,WSW,247,6.0,14.0,60,0.00,,,0.00,Wunderground v.1.15,2013-07-30 00:30:00,
2013-07-29 17:40:00,69.1,55.1,29.99,WSW,237,6.0,6.0,61,0.00,,,0.00,Wunderground v.1.15,2013-07-30 00:40:00,
2013-07-29 17:50:00,69.1,55.1,29.98,SW,215,6.0,6.0,61,0.00,,,0.00,Wunderground v.1.15,2013-07-30 00:50:00,
2013-07-29 18:00:00,68.9,54.9,29.97,West,277,6.0,6.0,61,0.00,,,0.00,Wunderground v.1.15,2013-07-30 01:00:00,
2013-07-29 18:10:00,69.1,55.5,29.97,West,277,4.0,4.0,62,0.00,,,0.00,Wunderground v.1.15,2013-07-30 01:10:00,
2013-07-29 18:20:00,68.8,55.2,29.97,West,261,4.0,9.0,62,0.00,,,0.00,Wunderground v.1.15,2013-07-30 01:20:00,
2013-07-29 18:30:00,68.4,54.9,29.98,SW,215,5.0,5.0,62,0.00,,,0.00,Wunderground v.1.15,2013-07-30 01:30:00,
2013-07-29 18:40:00,67.6,55.0,29.98,WSW,244,4.0,9.0,64,0.00,,,0.00,Wunderground v.1.15,2013-07-30 01:40:00,
2013-07-29 18:50:00,67.8,55.2,29.98,West,261,5.0,11.0,64,0.00,,,0.00,Wunderground v.1.15,2013-07-30 01:50:00,
2013-07-29 19:10:00,66.9,54.7,29.99,SW,229,5.0,10.0,65,0.00,,,0.00,Wunderground v.1.15,2013-07-30 02:10:00,
2013-07-29 19:20:00,66.1,54.8,29.99,WSW,241,3.0,10.0,67,0.00,,,0.00,Wunderground v.1.15,2013-07-30 02:20:00,
2013-07-29 19:30:00,66.0,55.1,29.99,WSW,254,4.0,7.0,68,0.00,,,0.00,Wunderground v.1.15,2013-07-30 02:30:00,
2013-07-29 19:40:00,65.6,55.9,29.99,West,263,3.0,3.0,71,0.00,,,0.00,Wunderground v.1.15,2013-07-30 02:40:00,
2013-07-29 19:52:00,65.0,56.5,29.99,West,266,3.0,3.0,74,0.00,,,0.00,Wunderground v.1.15,2013-07-30 02:52:00,
2013-07-29 20:00:00,64.3,56.6,29.99,West,261,4.0,7.0,76,0.00,,,0.00,Wunderground v.1.15,2013-07-30 03:00:00,
2013-07-29 20:10:00,64.2,56.8,29.99,WNW,291,3.0,7.0,77,0.00,,,0.00,Wunderground v.1.15,2013-07-30 03:10:00,
2013-07-29 20:20:00,63.7,56.7,30.00,WNW,292,2.0,6.0,78,0.00,,,0.00,Wunderground v.1.15,2013-07-30 03:20:00,
2013-07-29 20:30:00,63.2,56.6,30.00,WNW,293,2.0,6.0,79,0.00,,,0.00,Wunderground v.1.15,2013-07-30 03:30:00,
2013-07-29 20:40:00,62.9,56.3,30.00,WNW,298,2.0,2.0,79,0.00,,,0.00,Wunderground v.1.15,2013-07-30 03:40:00,
2013-07-29 20:50:00,62.7,56.4,30.00,WNW,298,2.0,2.0,80,0.00,,,0.00,Wunderground v.1.15,2013-07-30 03:50:00,
2013-07-29 21:00:00,62.6,56.3,30.00,WNW,299,2.0,2.0,80,0.00,,,0.00,Wunderground v.1.15,2013-07-30 04:00:00,
2013-07-29 21:10:00,62.4,56.1,30.00,West,269,3.0,6.0,80,0.00,,,0.00,Wunderground v.1.15,2013-07-30 04:10:00,
2013-07-29 21:20:00,62.3,56.4,30.00,West,269,3.0,3.0,81,0.00,,,0.00,Wunderground v.1.15,2013-07-30 04:20:00,
2013-07-29 21:30:00,62.0,56.4,30.02,West,269,1.0,1.0,82,0.00,,,0.00,Wunderground v.1.15,2013-07-30 04:30:00,
2013-07-29 21:40:00,62.1,56.5,30.02,West,281,2.0,4.0,82,0.00,,,0.00,Wunderground v.1.15,2013-07-30 04:40:00,
2013-07-29 21:50:00,62.1,56.9,30.02,West,281,1.0,6.0,83,0.00,,,0.00,Wunderground v.1.15,2013-07-30 04:50:00,
2013-07-29 22:00:00,62.0,56.8,30.02,WNW,286,3.0,3.0,83,0.00,,,0.00,Wunderground v.1.15,2013-07-30 05:00:00,
2013-07-29 22:10:00,61.8,56.6,30.02,WNW,301,1.0,1.0,83,0.00,,,0.00,Wunderground v.1.15,2013-07-30 05:10:00,
2013-07-29 22:20:00,61.6,56.4,30.02,WNW,301,1.0,1.0,83,0.00,,,0.00,Wunderground v.1.15,2013-07-30 05:20:00,
2013-07-29 22:30:00,61.5,56.3,30.02,WNW,302,1.0,1.0,83,0.00,,,0.00,Wunderground v.1.15,2013-07-30 05:30:00,
2013-07-29 22:40:00,61.3,56.1,30.02,WNW,301,1.0,1.0,83,0.00,,,0.00,Wunderground v.1.15,2013-07-30 05:40:00,
2013-07-29 22:50:00,61.2,56.0,30.03,WSW,242,2.0,6.0,83,0.00,,,0.00,Wunderground v.1.15,2013-07-30 05:50:00,
2013-07-29 23:00:00,61.0,55.8,30.02,WSW,249,2.0,2.0,83,0.00,,,0.00,Wunderground v.1.15,2013-07-30 06:00:00,
2013-07-29 23:10:00,60.9,55.7,30.02,WNW,290,1.0,1.0,83,0.00,,,0.00,Wunderground v.1.15,2013-07-30 06:10:00,
2013-07-29 23:20:00,60.7,55.5,30.02,West,260,1.0,5.0,83,0.00,,,0.00,Wunderground v.1.15,2013-07-30 06:20:00,
2013-07-29 23:30:00,60.7,55.5,30.03,West,260,1.0,1.0,83,0.00,,,0.00,Wunderground v.1.15,2013-07-30 06:30:00,
2013-07-29 23:40:00,60.5,55.6,30.03,West,261,1.0,5.0,84,0.00,,,0.00,Wunderground v.1.15,2013-07-30 06:40:00,
2013-07-29 23:50:00,60.5,55.6,30.03,West,261,2.0,2.0,84,0.00,,,0.00,Wunderground v.1.15,2013-07-30 06:50:00,